GEESAT-3 05 (61015 NORAD) Tracking and Keplerian Element Data

This shows tracking and keplerian element data for the satellite.

Feedback or suggestion? Click here.




ElementValue
Catalog61015
NameGEESAT-3 05
Epoch Orbit553
Epoch Day286.86157446
Epoch Year2024
RAAN64.9568
Inclination50.0041
Eccentricity0.0023607
Argument of Perigee285.176
Mean Anonmoly74.6572
Mean Motion14.92396883
Decay Rate0.00017177
L11 61015U 24159E 24286.86157446 .00017177 00000+0 16701-2 0 9996
L22 61015 50.0041 64.9568 0023607 285.1760 74.6572 14.92396883 5537



Live tracking and technical data element details for GEESAT-3 05 (NORAD 61015). GEESAT-3 05 can be tracked NOW for your location showing map with azimuth and elevation plus other details from your city location.







IsCatalogInMostPopularTable: catalog: 61015, numindb: 7
Update: records affected: 1



GetName: 61015 GEESAT-3 05

Hit Count: updated at: Tue, 03 Dec 2024 03:27:54 GMT